Location: Berg
(47.2344°N, 9.5296°E)
Time: 02:37:41
(UTC+00:00)

BEESAT 2 - Pass Details

Date: 03 December 2021
Orbit: 498 x 513 km, 64.9° (Epoch: 24 January)

Event Time Altitude Azimuth Distance (km) Brightness Sun altitude
Exits shadow 04:36:14 16° 6° (N) 1,407 ? -21.9°
Maximum altitude 04:37:48 20° 37° (NE) 1,243 ? -21.7°
Drops below altitude 10° 04:40:43 10° 85° (E) 1,744 ? -21.2°
Sets 04:43:21 0° 103° (ESE) 2,625 ? -20.7°
